Weather History for Guatemala Aeropuertola Aurora, Guatemala

Change the Weather History Date:

Wednesday, January 8, 2014

  Actual Average Record
Temperature  
Mean Temperature 60 °F -  
Max Temperature 70 °F 73 °F - ()
Min Temperature 50 °F 54 °F - ()
Degree Days  
Heating Degree Days 5    
Growing Degree Days 10 (Base 50)    
Moisture  
Dew Point 50 °F    
Average Humidity 70    
Maximum Humidity 82    
Minimum Humidity 46    
Precipitation  
Precipitation 0.00 in - - ()
Sea Level Pressure  
Sea Level Pressure 30.32 in    
Wind  
Wind Speed 15 mph ()    
Max Wind Speed 21 mph    
Max Gust Speed -    
Visibility 6.2 miles    
Events      
T = Trace of Precipitation, MM = Missing Value Source: Averaged Metar Reports

Daily Weather History Graph

Daily Weather History Graph

Search for Another Location

Airport:

Trip Planner

Search our weather history database for the weather conditions in past years. The results will help you decide how hot, cold, wet, or windy it might be!

Date:

Astronomy

Jan. 08, 2014 Rise Set
Actual Time 6:29 AM CST 5:48 PM CST
Civil Twilight 6:06 AM CST 6:11 PM CST
Nautical Twilight 5:39 AM CST 6:37 PM CST
Astronomical Twilight 5:13 AM CST 7:04 PM CST
Moon 12:12 PM CST (1/8) 12:08 AM CST (1/8)
Length of Visible Light 12h 05m
Length of Day
11h 18m
First Quarter, 56% of the Moon is Illuminated
Jan 8
First Quarter
Jan 15
Full
Jan 23
Last Quarter
Jan 30
New
Feb 6
First Quarter

Hourly Weather History & Observations

Time (CST) Temp. Dew Point Humidity Pressure Visibility Wind Dir Wind Speed Gust Speed Precip Events Conditions
12:00 AM 53.6 °F 44.6 °F 72% 30.39 in - North 16.1 mph - N/A   Clear
1:00 AM 53.6 °F 46.4 °F 77% 30.36 in - North 18.4 mph - N/A   Clear
2:00 AM 51.8 °F 46.4 °F 82% 30.33 in - NNE 16.1 mph - N/A   Clear
3:00 AM 53.6 °F 46.4 °F 77% 30.33 in - NNE 18.4 mph - N/A   Clear
4:00 AM 53.6 °F 46.4 °F 77% 30.33 in - NNE 20.7 mph - N/A   Clear
5:00 AM 53.6 °F 46.4 °F 77% 30.33 in - NNE 18.4 mph - N/A   Clear
6:00 AM 54 °F 46 °F 65% 30.12 in 25 mi NNE 18.4 mph - -   Mostly Cloudy
6:00 AM 53.6 °F 46.4 °F 77% 30.33 in - NNE 18.4 mph - N/A   Clear
7:00 AM 53.6 °F 46.4 °F 77% 30.33 in - NNE 20.7 mph - N/A   Clear
8:00 AM 55.4 °F 46.4 °F 72% 30.36 in 6.2 mi NNE 16.1 mph - N/A   Mostly Cloudy
9:00 AM 59.0 °F 53.6 °F 82% 30.39 in 6.2 mi NNE 13.8 mph - N/A   Mostly Cloudy
10:00 AM 60.8 °F 50.0 °F 68% 30.39 in 6.2 mi NNE 13.8 mph - N/A   Mostly Cloudy
11:00 AM 62.6 °F 50.0 °F 63% 30.39 in 6.2 mi NNE 20.7 mph - N/A   Mostly Cloudy
12:00 PM 65 °F 49 °F 46% 30.11 in 25 mi North 16.1 mph - -   Overcast
12:00 PM 64.4 °F 50.0 °F 59% 30.36 in 6.2 mi North 16.1 mph - N/A   Mostly Cloudy
1:00 PM 64.4 °F 51.8 °F 64% 30.33 in 6.2 mi NNW 13.8 mph - N/A   Mostly Cloudy
2:00 PM 68.0 °F 53.6 °F 60% 30.30 in 6.2 mi North 18.4 mph - N/A   Scattered Clouds
3:00 PM 69.8 °F 55.4 °F 60% 30.30 in - North 13.8 mph - N/A   Clear
4:00 PM 68.0 °F 51.8 °F 56% 30.27 in 6.2 mi North 13.8 mph - N/A   Partly Cloudy
5:00 PM 66.2 °F 51.8 °F 60% 30.30 in 6.2 mi North 16.1 mph - N/A   Partly Cloudy
6:00 PM 62 °F 51 °F 59% 30.09 in 25 mi NNE 18.4 mph - -   Partly Cloudy
6:00 PM 62.6 °F 51.8 °F 68% 30.30 in - North - - N/A   Scattered Clouds
7:00 PM 60.8 °F 51.8 °F 72% 30.33 in 6.2 mi NNE 16.1 mph - N/A   Scattered Clouds
8:00 PM 59.0 °F 51.8 °F 77% 30.36 in 6.2 mi NNE 18.4 mph - N/A   Mostly Cloudy
9:00 PM 59.0 °F 51.8 °F 77% 30.36 in 6.2 mi NNE 18.4 mph - N/A   Mostly Cloudy
10:00 PM 57.2 °F 51.8 °F 82% 30.36 in 6.2 mi North 16.1 mph - N/A   Mostly Cloudy
11:00 PM 57.2 °F 51.8 °F 82% 30.36 in 6.2 mi NNE 16.1 mph - N/A   Mostly Cloudy